SCP
0 0 0 0 0 0 0 0 0 0 0 0 0 0 0 0 0 0 0 0 0 0 0 0 0 0 0 0 0 0 0 0 0 0 0 0 0 0 0 0 0 0 0
0 0 0 0 0 0 0 0 0 0 0 0 0 0 0 0 0 0 0 0 0 0 0 0 0 0 0 0 0 0 0 0 0 0 0 0 0 0 0 0 0 0 0
0 0 0 0 0 0 0 0 0 0 0 0 0 0 0 0 0 0 0 0 0 0 0 0 0 0 0 0 0 0 0 0 0 0 0 0 0 0 0 0 0 0 0
0 0 0 0 0 0 0 0 0 0 0 0 0 1 0 0 0 0 0 0 0 0 0 0 0 0 0 0 0 0 0 0 0 0 0 0 0 0 0 0 0 0 0
0 0 0 0 0 0 0 0 0 0 0 0 1 1 0 0 0 0 0 0 0 0 0 0 0 0 0 0 0 0 0 0 0 0 0 0 0 0 0 0 0 0 0
0 0 0 0 0 0 0 0 0 0 0 1 1 1 0 0 0 0 0 0 0 0 0 0 0 0 0 0 0 0 0 0 0 0 0 0 0 0 0 0 0 0 0
0 0 0 0 0 0 0 0 0 0 1 1 1 0 0 0 0 0 0 0 0 0 0 0 0 0 0 0 0 0 0 0 0 0 0 0 0 0 0 0 0 0 0
0 0 0 0 0 0 0 0 0 0 1 1 1 0 0 0 0 0 0 0 0 0 0 0 0 0 0 0 0 0 0 0 0 0 0 0 0 0 0 0 0 0 0
0 0 0 0 0 0 0 1 1 1 1 1 1 0 0 0 0 0 0 0 0 0 0 0 0 0 0 0 0 0 0 0 0 0 0 0 0 0 0 0 0 0 0
0 0 0 0 0 0 0 0 1 1 0 0 0 0 0 0 0 0 0 0 0 0 0 0 0 0 0 0 0 0 0 0 0 0 0 0 0 0 0 0 0 0 0
0 0 0 0 0 0 0 0 0 0 0 0 0 0 0 0 0 0 0 0 0 0 0 0 0 0 0 0 0 0 0 0 0 0 0 0 0 0 0 0 0 0 0
0 0 0 0 0 0 0 0 0 0 0 0 0 0 0 0 0 0 0 0 0 0 0 0 0 0 0 0 0 0 0 0 0 0 0 0 0 0 0 0 0 0 0
0 0 0 0 0 0 0 0 0 0 0 0 0 0 0 0 0 0 0 0 0 0 0 0 0 0 0 0 0 0 0 0 0 0 0 0 0 0 0 0 0 0 0
0 0 0 0 0 0 0 0 0 0 0 0 0 0 0 0 0 0 0 0 0 0 0 0 0 0 0 0 0 0 0 0 0 0 0 0 0 0 0 0 0 0 0
0 0 0 0 0 0 0 0 0 0 0 0 0 0 0 0 0 0 0 0 0 0 0 0 0 0 0 0 0 0 0 0 0 0 0 0 0 0 0 0 0 0 0
0 0 0 0 0 0 0 0 0 0 0 0 0 0 0 0 0 0 0 0 0 0 0 0 0 0 0 0 0 0 0 0 0 0 0 0 0 0 0 0 0 0 0
0 0 0 0 0 0 0 0 0 0 0 0 0 0 0 0 0 0 0 0 0 0 0 0 0 0 0 0 0 0 0 0 0 0 0 0 0 0 0 0 0 0 0
0 0 0 0 0 0 0 0 0 0 0 0 0 0 0 0 0 0 0 0 0 0 0 0 0 0 0 0 0 0 0 0 0 0 0 0 0 0 0 0 0 0 0
1 1 1 0 0 0 0 0 0 0 0 0 0 0 0 0 0 0 0 0 0 0 0 0 0 0 0 0 0 0 0 0 0 0 0 0 0 0 0 0 0 0 0
1 1 1 0 0 0 0 0 0 0 0 0 0 0 0 0 0 0 0 0 0 0 0 0 0 0 0 0 0 0 0 0 0 0 0 0 0 0 0 0 0 0 0
1 1 1 0 0 0 0 0 0 0 0 0 0 0 0 0 0 0 0 0 0 0 0 0 0 0 0 0 0 0 0 0 0 0 0 0 0 0 0 0 0 0 0
1 1 1 1 0 0 0 0 0 0 0 0 0 0 0 0 0 0 0 0 0 0 0 0 0 0 0 0 0 0 0 0 0 0 0 0 0 0 0 0 0 0 0
1 1 1 1 0 0 0 0 0 0 0 0 0 0 0 0 0 0 0 0 0 0 0 0 0 0 0 0 0 0 0 0 0 0 0 0 0 0 0 0 0 0 0
1 1 1 1 0 0 0 0 0 0 0 0 0 0 0 0 0 0 0 0 0 0 0 0 0 0 0 0 0 0 0 0 0 0 0 0 0 0 0 0 0 0 0
1 1 1 1 0 0 0 0 0 0 0 0 0 0 0 0 0 0 0 0 0 0 0 0 0 0 0 0 0 0 0 0 0 0 0 0 0 0 0 0 0 0 0
1 1 1 1 0 0 0 0 0 0 0 0 0 0 0 0 0 0 0 0 0 0 0 0 0 0 0 0 0 0 0 0 0 0 0 0 0 0 0 0 0 0 0
Wind_Speed
3 3 9 10 11 11 12 12 12 12 12 13 13 13 13 13 14 14 14 14 13 13 12 12 12 12 12 12 11 11 10 9 9 9 9 9 9 9 9 9 9 7 10
6 5 9 10 10 11 11 12 12 12 12 12 13 13 13 13 12 13 13 12 12 12 12 11 11 11 11 11 11 10 10 9 8 8 8 8 9 9 9 9 9 6 10
8 6 8 9 10 11 11 12 12 12 12 12 12 12 12 12 12 12 12 12 12 12 11 11 11 11 10 10 10 9 9 8 7 7 7 3 5 8 8 9 9 10 10
8 5 7 9 9 9 10 11 12 12 12 12 12 12 12 12 12 11 11 11 11 11 11 10 10 10 10 9 9 8 8 7 7 6 3 3 3 7 8 8 9 9 9
7 5 7 10 9 9 10 12 13 13 13 12 12 11 11 11 11 11 10 10 10 10 10 10 10 9 9 9 8 7 7 6 6 4 3 2 2 6 8 8 8 9 9
7 5 7 11 10 10 11 12 13 13 12 12 11 11 10 10 10 10 9 9 9 9 9 9 9 9 8 8 7 7 6 5 4 3 3 3 3 7 8 8 8 9 8
7 5 7 11 11 10 11 12 13 12 12 11 10 10 9 9 9 9 8 8 8 8 8 8 8 8 7 7 6 6 5 5 3 3 3 3 5 8 9 8 8 8 8
9 6 6 10 11 11 11 12 12 12 11 10 9 9 8 8 8 8 8 8 7 7 7 7 7 7 6 5 5 5 4 4 4 4 3 4 7 9 10 9 8 8 8
8 7 5 5 7 10 10 10 11 11 10 9 8 8 7 7 7 7 6 6 6 6 6 6 6 6 5 5 4 4 3 3 3 3 5 3 8 10 10 9 8 8 8
7 6 5 5 4 4 5 9 10 10 9 8 7 7 6 6 6 6 5 5 6 6 6 6 6 5 4 4 4 3 3 2 3 4 3 5 9 11 10 10 9 8 7
7 5 5 5 4 4 4 6 7 8 7 6 5 6 5 2 2 3 4 5 5 6 6 6 5 4 3 3 3 3 1 1 2 2 3 7 10 11 11 10 9 9 8
7 6 5 6 5 5 4 3 2 3 3 2 2 2 2 2 1 2 3 4 4 4 5 4 4 3 2 1 2 1 1 2 2 2 4 9 11 11 11 10 10 9 9
8 7 6 6 5 5 3 3 2 1 2 2 3 2 2 2 1 1 1 1 1 2 1 2 1 1 1 1 0 1 2 2 1 2 4 10 11 11 11 10 9 9 9
8 8 6 6 5 4 3 3 3 2 2 2 2 3 3 2 1 1 1 1 1 0 1 1 1 1 1 1 2 2 2 2 2 1 4 10 11 11 11 10 9 9 9
8 7 7 6 5 4 4 3 3 3 3 3 2 2 3 2 2 1 1 1 1 1 1 1 1 1 1 1 2 2 2 3 3 3 3 10 11 11 11 11 11 10 10
8 7 6 7 6 5 4 3 3 3 3 3 2 2 3 2 2 2 1 1 1 1 1 1 1 1 1 1 1 1 2 2 3 4 3 6 11 11 11 11 11 11 11
8 7 7 7 6 5 5 4 3 3 3 2 2 2 2 2 2 2 1 1 1 1 1 1 1 1 0 0 1 1 1 2 2 4 4 3 4 9 11 11 11 10 11
8 7 7 7 6 5 4 4 3 3 3 2 2 2 2 2 2 2 1 1 1 1 1 1 1 1 1 0 1 1 1 1 3 3 4 4 3 4 7 11 10 10 10
9 8 7 6 6 5 4 3 3 3 3 2 2 2 2 3 3 2 1 1 1 1 1 1 1 1 0 1 1 1 1 2 2 2 3 4 4 4 3 6 9 9 9
9 8 7 6 5 5 3 3 2 2 1 2 2 2 3 2 3 3 2 1 1 1 1 0 0 0 0 1 1 1 1 1 1 1 3 3 3 4 4 4 4 5 8
8 8 7 6 5 4 3 3 2 2 1 1 1 2 2 2 3 3 2 1 1 1 1 1 1 1 1 0 1 2 2 1 1 1 1 1 2 3 3 4 3 2 3
9 8 7 6 5 5 3 3 2 2 2 1 1 1 2 2 3 3 3 2 2 2 1 1 1 1 0 1 1 1 2 3 3 1 0 1 1 1 2 4 3 3 2
9 8 7 6 5 5 4 3 2 2 2 1 1 0 1 2 2 2 2 2 2 2 2 1 2 2 1 1 1 2 2 2 2 2 1 0 0 1 1 2 3 4 4
9 8 7 6 5 5 5 4 5 4 3 2 2 1 1 1 1 2 2 2 2 1 1 1 1 1 2 0 1 0 2 3 1 1 2 1 1 1 2 2 3 3 3
9 8 7 6 5 5 5 5 5 3 2 2 2 2 1 0 1 1 2 2 1 1 1 1 1 1 1 1 0 0 0 0 1 2 2 2 2 2 2 2 2 2 3
8 8 7 6 5 5 5 5 5 5 4 3 2 2 1 0 0 1 1 1 1 1 1 1 1 1 1 1 0 0 1 1 1 1 2 2 2 2 2 1 1 2 2
Wind_Direction
150 156 130 123 120 119 118 117 116 113 111 112 112 114 116 118 121 124 127 129 129 129 128 127 131 133 130 131 133 133 133 134 138 139 138 137 135 131 130 131 130 127 131
155 155 134 128 125 124 122 120 120 118 115 114 114 116 118 120 121 125 125 128 131 130 130 128 131 132 134 136 135 134 135 137 137 139 137 137 138 136 134 134 134 137 136
143 145 138 133 131 130 129 128 126 121 117 117 118 118 120 122 122 123 124 126 129 131 132 131 131 133 135 138 137 137 139 142 143 142 137 130 137 137 136 137 140 142 143
140 144 140 134 131 131 132 135 133 128 124 122 121 120 122 122 124 124 125 128 132 133 136 137 138 139 140 141 144 144 143 142 148 146 134 136 143 142 143 141 144 147 149
137 142 145 135 130 129 133 136 135 133 130 125 123 121 121 123 123 127 129 132 136 140 144 146 146 145 147 151 153 151 152 150 153 144 130 137 146 156 154 152 151 151 152
139 145 145 137 132 130 135 136 136 135 132 130 128 126 126 128 130 133 135 137 141 146 150 152 155 155 158 161 161 162 165 161 154 144 148 159 165 168 162 160 161 159 156
142 145 144 139 136 132 134 137 138 138 135 132 131 130 130 135 139 138 143 146 150 154 158 161 162 162 166 171 172 175 178 174 156 152 164 163 168 165 164 161 160 159 163
144 143 141 143 139 138 138 139 140 140 138 136 135 134 133 134 141 146 151 154 158 165 170 171 167 170 177 184 189 190 193 185 162 155 163 168 174 171 167 162 159 161 162
140 140 138 144 143 143 143 144 145 143 143 141 139 138 138 139 143 149 153 156 161 167 172 177 179 182 191 201 208 204 204 187 164 156 170 173 173 170 165 163 163 163 167
138 142 146 146 143 143 147 150 151 150 149 147 142 142 142 142 148 152 153 157 163 171 176 180 186 194 201 208 212 214 213 169 168 172 173 179 178 173 170 169 170 170 171
141 147 148 147 148 151 155 156 157 156 154 148 141 142 135 109 116 144 153 155 163 174 178 183 189 194 206 215 215 218 208 153 162 170 175 179 180 175 174 175 174 173 172
157 160 155 152 155 159 162 148 147 146 143 130 119 121 107 96 111 135 150 156 156 172 178 180 192 202 216 224 213 198 151 167 166 176 179 180 182 182 181 182 181 179 180
165 161 162 161 159 155 149 144 146 133 129 125 121 124 113 100 92 96 96 133 138 165 161 159 169 201 207 212 210 173 170 171 184 189 183 182 185 188 188 187 188 189 190
154 159 158 157 151 149 141 148 150 146 142 135 135 134 123 119 127 134 110 107 86 103 137 136 152 168 221 222 205 191 176 178 177 182 195 188 188 191 191 190 195 198 198
153 157 157 153 150 150 142 149 145 151 147 147 142 137 135 139 149 147 135 124 123 136 147 143 159 194 209 225 201 179 179 181 175 188 194 193 194 195 195 196 200 201 198
156 155 153 153 154 144 141 142 145 150 147 140 140 145 142 142 145 145 140 138 134 147 163 159 177 198 207 207 220 190 189 190 180 186 199 198 198 200 201 203 204 206 204
156 152 152 152 148 141 143 150 140 148 146 145 146 145 141 136 143 147 142 150 161 148 119 116 93 35 357 298 273 237 213 209 197 193 197 200 204 208 207 208 207 207 207
150 149 154 148 143 141 136 136 139 146 150 157 156 150 146 135 137 132 137 165 176 132 115 114 89 69 2 334 271 262 241 231 216 205 197 198 203 208 212 213 212 212 213
151 148 145 143 145 145 138 132 134 137 149 161 154 156 157 152 150 144 146 171 160 117 99 122 100 122 67 301 267 261 254 244 236 214 196 194 196 198 200 207 210 216 221
149 146 144 144 146 141 131 120 115 117 136 143 150 162 158 158 152 149 152 171 156 121 94 78 107 102 211 243 286 303 285 264 247 221 204 195 194 198 196 199 205 220 222
146 145 149 146 150 144 138 140 141 150 146 138 162 164 162 160 157 156 170 179 169 162 189 199 144 91 345 65 57 359 348 341 324 254 214 181 198 203 187 193 194 197 219
154 154 153 156 157 158 160 158 152 152 159 154 146 134 150 154 164 168 169 181 174 162 161 157 131 112 326 96 124 85 4 347 334 319 270 184 210 202 192 196 197 198 201
160 162 161 163 161 163 155 132 116 93 80 77 79 119 167 153 157 166 166 170 167 159 168 177 159 143 168 324 128 138 142 236 301 325 329 7 205 186 210 201 196 205 205
166 161 159 159 160 161 155 148 148 151 159 179 175 171 175 159 158 157 154 153 157 156 156 176 149 146 142 214 315 139 171 170 167 309 326 323 260 231 233 225 219 207 205
165 162 161 154 157 159 156 157 152 156 161 150 137 133 134 103 131 140 129 136 146 153 148 133 119 125 142 162 173 314 25 62 146 162 279 315 328 295 254 235 226 208 206
163 159 156 155 162 162 159 156 158 159 152 139 135 141 150 135 99 108 114 128 144 145 151 161 138 123 131 131 135 160 179 188 207 175 216 267 282 288 284 248 219 219 218